TimeEDT,TemperatureF,Dew PointF,Humidity,Sea Level PressureIn,VisibilityMPH,Wind Direction,Wind SpeedMPH,Gust SpeedMPH,PrecipitationIn,Events,Conditions,WindDirDegrees,DateUTC
12:55 AM,63.1,61.9,96,29.95,10.0,Calm,Calm,-,N/A,,Clear,0,2012-10-07 04:55:00
1:55 AM,62.6,61.3,96,29.95,10.0,Calm,Calm,-,N/A,,Clear,0,2012-10-07 05:55:00
2:55 AM,62.2,61.5,97,29.94,10.0,Calm,Calm,-,N/A,,Clear,0,2012-10-07 06:55:00
3:55 AM,61.5,60.6,97,29.94,8.0,Calm,Calm,-,N/A,,Clear,0,2012-10-07 07:55:00
4:55 AM,61.2,60.8,99,29.94,4.0,Calm,Calm,-,N/A,,Clear,0,2012-10-07 08:55:00
5:55 AM,60.6,60.4,99,29.95,6.0,Calm,Calm,-,N/A,,Clear,0,2012-10-07 09:55:00
6:01 AM,60.8,60.8,100,29.95,2.0,Calm,Calm,-,N/A,,Clear,0,2012-10-07 10:01:00
6:02 AM,60.8,60.8,100,29.95,1.5,Calm,Calm,-,N/A,,Clear,0,2012-10-07 10:02:00
6:03 AM,60.8,59.0,94,29.95,1.2,Calm,Calm,-,N/A,,Clear,0,2012-10-07 10:03:00
6:06 AM,60.8,60.8,100,29.96,1.0,Calm,Calm,-,N/A,,Clear,0,2012-10-07 10:06:00
6:09 AM,60.8,60.8,100,29.96,0.8,WNW,3.5,-,N/A,,Clear,290,2012-10-07 10:09:00
6:10 AM,60.8,60.8,100,29.96,1.0,WNW,3.5,-,N/A,,Clear,300,2012-10-07 10:10:00
6:13 AM,60.8,60.8,100,29.96,1.2,NW,3.5,-,N/A,,Clear,310,2012-10-07 10:13:00
6:14 AM,60.8,60.8,100,29.96,1.0,NW,3.5,-,N/A,,Clear,310,2012-10-07 10:14:00
6:15 AM,60.8,60.8,100,29.96,1.0,NW,3.5,-,N/A,,Clear,310,2012-10-07 10:15:00
6:16 AM,60.8,59.0,94,29.96,0.8,NW,4.6,-,N/A,,Clear,310,2012-10-07 10:16:00
6:24 AM,59.0,59.0,100,29.96,0.8,NW,5.8,-,N/A,,Mist,320,2012-10-07 10:24:00
6:25 AM,59.0,59.0,100,29.96,1.0,NNW,4.6,-,N/A,,Mist,330,2012-10-07 10:25:00
6:27 AM,59.0,59.0,100,29.96,1.5,NNW,3.5,-,N/A,,Partly Cloudy,330,2012-10-07 10:27:00
6:28 AM,59.0,59.0,100,29.96,1.8,NW,3.5,-,N/A,,Partly Cloudy,320,2012-10-07 10:28:00
6:29 AM,59.0,59.0,100,29.96,2.5,Calm,Calm,-,N/A,,Partly Cloudy,0,2012-10-07 10:29:00
6:30 AM,59.0,59.0,100,29.96,3.0,NNW,3.5,-,N/A,,Partly Cloudy,340,2012-10-07 10:30:00
6:36 AM,59.0,59.0,100,29.96,2.5,Calm,Calm,-,N/A,,Clear,0,2012-10-07 10:36:00
6:45 AM,59.0,59.0,100,29.96,4.0,Calm,Calm,-,N/A,,Clear,0,2012-10-07 10:45:00
6:52 AM,60.8,60.8,100,29.97,2.5,Calm,Calm,-,N/A,,Clear,0,2012-10-07 10:52:00
6:54 AM,60.8,60.8,100,29.97,1.5,Calm,Calm,-,N/A,,Clear,0,2012-10-07 10:54:00
6:55 AM,60.3,60.3,100,29.97,1.5,Calm,Calm,-,N/A,,Clear,0,2012-10-07 10:55:00
6:56 AM,60.8,60.8,100,29.97,1.2,Calm,Calm,-,N/A,,Clear,0,2012-10-07 10:56:00
6:58 AM,60.8,60.8,100,29.97,1.0,Calm,Calm,-,N/A,,Clear,0,2012-10-07 10:58:00
7:00 AM,60.8,60.8,100,29.97,0.8,Calm,Calm,-,N/A,,Clear,0,2012-10-07 11:00:00
7:04 AM,60.8,60.8,100,29.97,1.0,Calm,Calm,-,N/A,,Clear,0,2012-10-07 11:04:00
7:08 AM,59.0,59.0,100,29.97,1.2,Calm,Calm,-,N/A,,Clear,0,2012-10-07 11:08:00
7:09 AM,59.0,59.0,100,29.97,1.5,Calm,Calm,-,N/A,,Clear,0,2012-10-07 11:09:00
7:11 AM,59.0,59.0,100,29.97,1.2,Calm,Calm,-,N/A,,Clear,0,2012-10-07 11:11:00
7:12 AM,60.8,60.8,100,29.97,1.0,Calm,Calm,-,N/A,,Clear,0,2012-10-07 11:12:00
7:13 AM,60.8,60.8,100,29.97,0.5,Calm,Calm,-,N/A,Fog,Fog,0,2012-10-07 11:13:00
7:14 AM,60.8,60.8,100,29.97,0.5,Calm,Calm,-,N/A,Fog,Fog,0,2012-10-07 11:14:00
7:16 AM,59.0,59.0,100,29.97,0.2,Calm,Calm,-,N/A,Fog,Fog,0,2012-10-07 11:16:00
7:28 AM,59.0,59.0,100,29.98,0.2,Calm,Calm,-,N/A,Fog,Fog,0,2012-10-07 11:28:00
7:29 AM,59.0,59.0,100,29.98,0.2,Calm,Calm,-,N/A,Fog,Fog,0,2012-10-07 11:29:00
7:30 AM,59.0,59.0,100,29.98,0.2,Calm,Calm,-,N/A,Fog,Fog,0,2012-10-07 11:30:00
7:33 AM,59.0,59.0,100,29.98,0.5,Calm,Calm,-,N/A,Fog,Fog,0,2012-10-07 11:33:00
7:35 AM,59.0,59.0,100,29.98,0.8,Calm,Calm,-,N/A,,Clear,0,2012-10-07 11:35:00
7:36 AM,59.0,59.0,100,29.98,1.0,Calm,Calm,-,N/A,,Clear,0,2012-10-07 11:36:00
7:37 AM,60.8,60.8,100,29.98,1.8,Calm,Calm,-,N/A,,Clear,0,2012-10-07 11:37:00
7:38 AM,60.8,60.8,100,29.98,3.0,Calm,Calm,-,N/A,,Clear,0,2012-10-07 11:38:00
7:55 AM,59.5,59.5,100,29.98,6.0,Calm,Calm,-,N/A,,Clear,0,2012-10-07 11:55:00
8:55 AM,66.0,64.9,96,30.00,10.0,North,6.9,-,N/A,,Clear,350,2012-10-07 12:55:00
9:55 AM,68.5,61.3,78,30.01,10.0,Variable,5.8,-,N/A,,Clear,0,2012-10-07 13:55:00
10:55 AM,70.5,60.4,70,30.02,10.0,Variable,4.6,-,N/A,,Clear,0,2012-10-07 14:55:00
11:55 AM,73.4,61.3,66,30.00,10.0,Calm,Calm,-,N/A,,Clear,0,2012-10-07 15:55:00
12:55 PM,79.0,63.3,59,29.98,10.0,Variable,3.5,-,N/A,,Clear,0,2012-10-07 16:55:00
1:55 PM,80.8,64.2,57,29.96,10.0,Calm,Calm,-,N/A,,Mostly Cloudy,0,2012-10-07 17:55:00
2:55 PM,78.6,63.9,60,29.95,10.0,North,8.1,-,N/A,,Partly Cloudy,10,2012-10-07 18:55:00
3:41 PM,78.8,64.4,61,29.95,10.0,NE,6.9,-,N/A,,Light Drizzle,40,2012-10-07 19:41:00
3:49 PM,78.8,64.4,61,29.95,10.0,NE,5.8,-,N/A,,Clear,40,2012-10-07 19:49:00
3:55 PM,79.5,64.4,60,29.95,10.0,NNE,5.8,-,0.00,,Clear,30,2012-10-07 19:55:00
4:55 PM,78.6,64.6,62,29.96,10.0,North,10.4,-,N/A,,Mostly Cloudy,10,2012-10-07 20:55:00
5:55 PM,76.5,64.0,65,29.97,10.0,Variable,6.9,-,N/A,,Partly Cloudy,0,2012-10-07 21:55:00
6:55 PM,71.1,62.6,75,30.00,10.0,NNE,5.8,-,N/A,,Clear,20,2012-10-07 22:55:00
7:55 PM,66.7,59.5,78,30.03,10.0,NNE,10.4,-,N/A,,Clear,30,2012-10-07 23:55:00
8:55 PM,63.1,56.8,80,30.06,10.0,NNE,9.2,-,N/A,,Scattered Clouds,30,2012-10-08 00:55:00
9:06 PM,62.6,57.2,82,30.07,10.0,North,6.9,-,N/A,,Mostly Cloudy,10,2012-10-08 01:06:00
9:10 PM,62.6,57.2,82,30.07,10.0,Variable,5.8,-,N/A,,Mostly Cloudy,0,2012-10-08 01:10:00
9:55 PM,61.5,55.9,82,30.09,10.0,North,3.5,-,N/A,,Mostly Cloudy,10,2012-10-08 01:55:00
10:43 PM,59.0,53.6,82,30.09,10.0,NNE,8.1,-,N/A,,Mostly Cloudy,30,2012-10-08 02:43:00
10:55 PM,59.5,53.2,80,30.10,10.0,NE,6.9,-,N/A,,Mostly Cloudy,40,2012-10-08 02:55:00
11:55 PM,58.1,51.8,80,30.11,10.0,Variable,5.8,-,N/A,,Mostly Cloudy,0,2012-10-08 03:55:00